This is the latest recevied weather packets stored in our database for station/object KC4GS-13. If no packets are shown the sender has not sent any weather packets the latest 10 day(s).
| Time | Temp. | Humidity | Pressure | Rain* | Wind** | Luminosity | Snow |
|---|---|---|---|---|---|---|---|
| 1788549562 | 35.56° C | 51% | 1016.7 hPa | 0 mm | - | 678 W/m² | - |
| 1788549258 | 35° C | 52% | 1016.9 hPa | 0 mm | - | 684 W/m² | - |
| 1788548954 | 35° C | 51% | 1017 hPa | 0 mm | - | 688 W/m² | - |
| 1788548649 | 35° C | 52% | 1017.1 hPa | 0 mm | - | 140 W/m² | - |
| 1788548346 | 35° C | 52% | 1017.1 hPa | 0 mm | - | 116 W/m² | - |
| 1788548041 | 35° C | 51% | 1017.1 hPa | 0 mm | - | 697 W/m² | - |
| 1788547741 | 35° C | 52% | 1017.2 hPa | 0 mm | - | 694 W/m² | - |
| 1788547436 | 34.44° C | 55% | 1017.3 hPa | 0 mm | - | 634 W/m² | - |
| 1788547131 | 35° C | 54% | 1017.3 hPa | 0 mm | - | 558 W/m² | - |
| 1788546826 | 35° C | 54% | 1017.4 hPa | 0 mm | - | 237 W/m² | - |
| 1788546522 | 34.44° C | 55% | 1017.6 hPa | 0 mm | - | 720 W/m² | - |
| 1788546217 | 35° C | 56% | 1017.6 hPa | 0 mm | - | 720 W/m² | - |
| 1788545913 | 34.44° C | 56% | 1017.6 hPa | 0 mm | - | 768 W/m² | - |
| 1788545613 | 33.89° C | 58% | 1017.5 hPa | 0 mm | - | 762 W/m² | - |
| 1788545308 | 33.89° C | 58% | 1017.7 hPa | 0 mm | - | 228 W/m² | - |
| 1788545003 | 34.44° C | 57% | 1017.8 hPa | 0 mm | - | 247 W/m² | - |
| 1788544702 | 34.44° C | 56% | 1017.6 hPa | 0 mm | - | 719 W/m² | - |
| 1788544400 | 33.89° C | 59% | 1017.7 hPa | 0 mm | - | 800 W/m² | - |
| 1788544095 | 33.33° C | 60% | 1017.6 hPa | 0 mm | - | 798 W/m² | - |
| 1788543791 | 33.33° C | 61% | 1017.6 hPa | 0 mm | - | 788 W/m² | - |
| 1788543487 | 33.89° C | 60% | 1017.8 hPa | 0 mm | - | 160 W/m² | - |
| 1788543183 | 33.89° C | 60% | 1017.9 hPa | 0 mm | - | 679 W/m² | - |
| 1788542878 | 32.78° C | 61% | 1017.9 hPa | 0 mm | - | 774 W/m² | - |
| 1788542577 | 33.33° C | 62% | 1017.9 hPa | 0 mm | - | 416 W/m² | - |
| 1788542273 | 32.78° C | 62% | 1018 hPa | 0 mm | - | 448 W/m² | - |
* Rain latest hour (hover to see other rain measurements)
** Current wind speed in m/s (hover to see current wind gust speed)